This is the latest recevied weather packets stored in our database for station/object DL1MMS-10. If no packets are shown the sender has not sent any weather packets the latest 10 day(s).
| Time | Temp. | Humidity | Pressure | Rain* | Wind** | Luminosity | Snow |
|---|---|---|---|---|---|---|---|
| 1777965158 | 12.78° C | 82% | 1010.5 hPa | 0 mm | - | - | - |
| 1777964857 | 12.22° C | 82% | 1010.7 hPa | 0 mm | - | - | - |
| 1777964557 | 11.67° C | 83% | 1010.5 hPa | 0 mm | - | - | - |
| 1777964257 | 11.11° C | 83% | 1010.7 hPa | 0 mm | - | - | - |
| 1777963956 | 11.11° C | 84% | 1010.7 hPa | 0 mm | - | - | - |
| 1777963656 | 10.56° C | 84% | 1010.6 hPa | 0 mm | - | - | - |
| 1777963356 | 10° C | 84% | 1010.8 hPa | 0 mm | - | - | - |
| 1777963056 | 10° C | 84% | 1010.8 hPa | 0 mm | - | - | - |
| 1777962755 | 9.44° C | 85% | 1010.8 hPa | 0 mm | - | - | - |
| 1777962455 | 9.44° C | 85% | 1010.9 hPa | 0 mm | - | - | - |
| 1777962155 | 9.44° C | 85% | 1010.9 hPa | 0 mm | - | - | - |
| 1777961854 | 8.89° C | 85% | 1010.9 hPa | 0 mm | - | - | - |
| 1777961554 | 8.89° C | 85% | 1011 hPa | 0 mm | - | - | - |
| 1777961254 | 8.89° C | 86% | 1011 hPa | 0 mm | - | - | - |
| 1777960954 | 8.89° C | 86% | 1011.1 hPa | 0 mm | - | - | - |
| 1777960653 | 8.89° C | 87% | 1011 hPa | 0 mm | - | - | - |
| 1777960353 | 8.33° C | 87% | 1010.9 hPa | 0 mm | - | - | - |
| 1777960053 | 8.33° C | 88% | 1011 hPa | 0 mm | - | - | - |
| 1777959752 | 7.78° C | 88% | 1010.8 hPa | 0 mm | - | - | - |
| 1777959452 | 7.78° C | 88% | 1010.8 hPa | 0 mm | - | - | - |
| 1777959152 | 7.22° C | 88% | 1010.9 hPa | 0 mm | - | - | - |
| 1777958852 | 6.67° C | 88% | 1010.9 hPa | 0 mm | - | - | - |
| 1777958551 | 6.67° C | 88% | 1010.9 hPa | 0 mm | - | - | - |
| 1777958251 | 6.11° C | 88% | 1011 hPa | 0 mm | - | - | - |
| 1777957951 | 6.11° C | 88% | 1010.9 hPa | 0 mm | - | - | - |
* Rain latest hour (hover to see other rain measurements)
** Current wind speed in m/s (hover to see current wind gust speed)